Bookmark and Share
Track history (hours):
 

Kyokuho Maru No.15

Last reported at 2014-Apr-24 09:32 UTC. Time now 2014-Apr-24 13:47 UTC.
Position N 34°48' E 139°07'.

Length 63 m; draft 4.2 m.

Type: Tanker. MMSI: 431301714.

NotesDate/timePositionNaut miles runAvg speedWind from/ knotsBaromVisibWave heightAir tempDewpointWater temp
2014-Apr-24 09:32N 34°48' E 139°07'2110.4
2014-Apr-24 07:31N 35°02' E 139°27'1111.5
2014-Apr-24 06:33N 35°06' E 139°39'1110.8
2014-Apr-24 05:33N 35°16' E 139°46'1010.1
2014-Apr-24 04:33N 35°26' E 139°45'1211.7
2014-Apr-24 03:33N 35°32' E 139°57'8 7.7
2014-Apr-24 02:33N 35°33' E 140°06'0 0.0
2014-Apr-24 01:33N 35°33' E 140°06'0 0.0
2014-Apr-24 00:33N 35°33' E 140°06'0 0.0
2014-Apr-23 23:33N 35°33' E 140°06'0 0.0
2014-Apr-23 22:33N 35°33' E 140°06'3 2.7
2014-Apr-23 21:33N 35°33' E 140°03'0 0.0
2014-Apr-23 20:33N 35°33' E 140°03'0 0.0
2014-Apr-23 19:33N 35°33' E 140°03'0 0.1
2014-Apr-23 18:33N 35°33' E 140°03'0 0.0
2014-Apr-23 17:33N 35°33' E 140°03'0 0.0
2014-Apr-23 16:33N 35°33' E 140°03'0 0.0
2014-Apr-23 15:33N 35°33' E 140°03'7 6.8
2014-Apr-23 14:33N 35°30' E 139°55'1212.0
2014-Apr-23 13:33N 35°21' E 139°45'1211.5
2014-Apr-23 12:33N 35°10' E 139°46'1211.8
2014-Apr-23 11:31N 35°02' E 139°35'1812.6
2014-Apr-23 10:04N 34°53' E 139°15'812.9
2014-Apr-23 09:27N 34°48' E 139°09'  
2014-Apr-21 02:32N 34°37' E 134°57'1212.1
2014-Apr-21 01:33N 34°37' E 135°11'6 6.0
2014-Apr-21 00:33N 34°40' E 135°17'0 0.0
2014-Apr-20 23:33N 34°40' E 135°17'0 0.0
2014-Apr-20 22:33N 34°40' E 135°17'1 0.7
2014-Apr-20 21:33N 34°39' E 135°18'1 0.7
2014-Apr-20 20:28N 34°39' E 135°19'0 0.0
2014-Apr-20 19:28N 34°39' E 135°19'0 0.0
2014-Apr-20 18:28N 34°39' E 135°19'0 0.0
2014-Apr-20 17:22N 34°39' E 135°19'0 0.0
2014-Apr-20 16:22N 34°39' E 135°19'0 0.0
2014-Apr-20 15:22N 34°39' E 135°19'0 0.0
2014-Apr-20 14:28N 34°39' E 135°19'0 0.0
2014-Apr-20 13:28N 34°39' E 135°19'0 0.0
2014-Apr-20 12:28N 34°39' E 135°19'6 6.3
2014-Apr-20 11:33N 34°37' E 135°13'1211.6
2014-Apr-20 10:30N 34°36' E 134°58'  
2014-Apr-15 05:31N 34°37' E 134°60'19 9.8
2014-Apr-15 03:33N 34°33' E 135°22'2 2.1
2014-Apr-15 02:30N 34°32' E 135°25'0 0.0
2014-Apr-15 01:34N 34°32' E 135°25'0 0.1
2014-Apr-14 22:33N 34°31' E 135°24'0 0.1
2014-Apr-14 21:33N 34°31' E 135°24'4 3.9
2014-Apr-14 20:33N 34°33' E 135°20'1212.5
2014-Apr-14 19:34N 34°35' E 135°05'  

Dump ship's entire track history

sailing weather and tide predictions

Kyokuho Maru No.15 — JI3715 — position and weather